Timestamp[UTC];2m Lufttemperatur [degC] (tas);Stations-Luftdruck [Pa] (ps);relative Luftfeuchtigkeit [%] (hurs);spezifische Luftfeuchtigkeit [kg/kg] (huss);Niederschlagsmenge [mm] (pr);Windgeschwindigkeit in 2m [m/s] (sfcWind);Windrichtung [deg];maximale Windgeschwindigkeit [m/s] (wsgsmax);u-Windkomponente [m/s] (uas);v-Windkomponente [m/s] (vas);Sonneneinstrahlung [W/m2];Blitzrate [n];Blitzentfernung [km];Bodenfeuchte in 5cm Tiefe [vol%];Bodenfeuchte in 15cm Tiefe [vol%];Bodenfeuchte in 30cm Tiefe [vol%];Bodenfeuchte in 60cm Tiefe [vol%];Bodentemperatur in 5cm Tiefe [degC];Bodentemperatur in 15cm Tiefe [degC];Bodentemperatur in 30cm Tiefe [degC];Bodentemperatur in 60cm Tiefe [degC];Matrixpotential in 30cm Tiefe [kPa];Bodenfeuchte aus CRNS [vol%] (mrso);Neutronen Anzahl [N/h]
2021-10-01 00:00:00;11,2;101113;70;0,0058;0,0;2,0;232;3,2;-1,22;-1,57;0;0;0;13,5;9,3;15,8;15,2;12,4;13,2;14,1;14,7;-175,1;21,2;1443
2021-10-01 01:00:00;11,2;101058;70;0,0057;0,0;2,3;234;4,2;-1,33;-1,88;0;0;0;13,5;9,3;15,8;15,2;12,3;13,2;14,1;14,7;-174,6;21,4;1509
2021-10-01 02:00:00;11,1;101005;70;0,0057;0,0;2,4;233;4,3;-1,45;-1,97;0;0;0;13,5;9,3;15,9;15,2;12,1;13,1;14,1;14,7;-174,4;21,5;1484
2021-10-01 03:00:00;11,1;100930;70;0,0057;0,0;2,4;234;4,3;-1,4;-1,94;0;0;0;13,5;9,3;15,9;15,2;12,0;13,0;14,0;14,7;-174,2;21,4;1444
2021-10-01 04:00:00;11,4;100883;68;0,0057;0,0;2,2;232;4,5;-1,31;-1,72;0;0;0;13,4;9,3;15,9;15,2;11,9;12,9;14,0;14,7;-174,0;21,3;1515
2021-10-01 05:00:00;10,7;100850;70;0,0056;0,0;1,8;230;2,8;-1,12;-1,36;1;0;0;13,4;9,3;15,9;15,2;11,9;12,8;13,9;14,7;-174,0;21,4;1444
2021-10-01 06:00:00;10,7;100828;71;0,0056;0,0;2,0;229;3,6;-1,3;-1,54;38;0;0;13,4;9,3;15,9;15,2;11,8;12,7;13,9;14,7;-173,9;21,1;1509
2021-10-01 07:00:00;11,8;100812;68;0,0058;0,0;2,5;230;4,5;-1,58;-1,95;106;0;0;13,4;9,3;15,9;15,2;11,8;12,6;13,8;14,7;-173,7;21,0;1489
2021-10-01 08:00:00;13,4;100780;64;0,0062;0,0;2,8;230;5,6;-1,8;-2,15;236;0;0;13,4;9,3;15,9;15,2;12,0;12,6;13,8;14,7;-173,6;20,9;1479
2021-10-01 09:00:00;14,9;100738;60;0,0062;0,0;3,4;232;6,5;-2,02;-2,68;336;0;0;13,4;9,3;15,9;15,2;12,5;12,7;13,8;14,7;-174,0;20,9;1504
2021-10-01 10:00:00;15,4;100715;56;0,0061;0,0;3,4;232;7,5;-2,04;-2,7;284;0;0;13,4;9,3;15,9;15,2;13,0;12,9;13,7;14,7;-173,9;20,9;1467
2021-10-01 11:00:00;15,7;100678;56;0,0062;0,0;3,0;228;5,8;-1,96;-2,24;216;0;0;13,3;9,3;15,9;15,2;13,4;13,1;13,7;14,6;-173,7;21,0;1496
2021-10-01 12:00:00;16,4;100610;54;0,0062;0,0;3,6;232;7,4;-2,23;-2,82;238;0;0;13,3;9,3;15,9;15,2;13,8;13,3;13,8;14,6;-173,8;21,3;1417
2021-10-01 13:00:00;17,2;100568;52;0,0063;0,0;3,3;228;6,4;-2,16;-2,46;218;0;0;13,3;9,3;15,9;15,2;14,1;13,6;13,8;14,6;-173,7;21,3;1524
2021-10-01 14:00:00;17,1;100535;52;0,0063;0,0;3,1;232;5,9;-1,85;-2,43;168;0;0;13,3;9,3;15,9;15,2;14,3;13,8;13,9;14,6;-173,8;21,5;1507
2021-10-01 15:00:00;16,6;100495;55;0,0064;0,0;2,1;230;3,8;-1,34;-1,64;90;0;0;13,2;9,3;15,9;15,2;14,4;14,0;14,0;14,6;-173,6;21,6;1533
2021-10-01 16:00:00;16,0;100478;56;0,0064;0,0;1,5;230;2,7;-0,94;-1,16;21;0;0;13,2;9,3;15,9;15,2;14,4;14,1;14,0;14,6;-173,5;21,5;1523
2021-10-01 17:00:00;15,2;100467;59;0,0063;0,0;1,3;234;2,0;-0,75;-1,03;0;0;0;13,2;9,3;15,9;15,2;14,3;14,1;14,1;14,6;-173,5;21,4;1588
2021-10-01 18:00:00;14,6;100477;63;0,0065;0,25;1,7;244;2,8;-0,76;-1,46;0;0;0;13,2;9,3;15,9;15,2;14,1;14,1;14,1;14,5;-173,2;21,5;1525
2021-10-01 19:00:00;12,9;100530;77;0,0071;1,02;2,0;244;3,9;-0,88;-1,78;0;0;0;13,2;9,3;15,9;15,2;13,9;14,1;14,2;14,5;-173,0;21,7;1552
2021-10-01 20:00:00;12,3;100500;83;0,0074;0,43;2,6;236;4,7;-1,45;-2,19;0;0;0;13,2;9,3;16,0;15,2;13,8;14,0;14,2;14,5;-172,7;21,7;1570
2021-10-01 21:00:00;12,3;100472;85;0,0075;0,13;2,2;238;4,0;-1,14;-1,89;0;0;0;13,3;9,3;16,0;15,2;13,6;13,9;14,2;14,5;-172,5;21,6;1467
2021-10-01 22:00:00;12,3;100455;86;0,0076;0,38;1,9;240;3,3;-0,97;-1,68;0;0;0;13,5;9,3;16,0;15,2;13,5;13,9;14,2;14,5;-172,0;21,6;1463
2021-10-01 23:00:00;12,4;100458;86;0,0077;0,0;1,8;242;3,1;-0,84;-1,58;0;0;0;13,6;9,3;16,0;15,2;13,4;13,8;14,2;14,5;-171,4;21,6;1443
2021-10-02 00:00:00;12,6;100440;87;0,0079;0,0;1,8;245;3,6;-0,77;-1,64;0;0;0;13,7;9,3;16,0;15,2;13,4;13,8;14,2;14,5;-171,2;21,7;1491
2021-10-02 01:00:00;12,6;100417;88;0,008;0,08;1,5;245;2,8;-0,62;-1,37;0;0;0;13,7;9,3;16,0;15,2;13,3;13,7;14,2;14,5;-170,8;21,4;1462
2021-10-02 02:00:00;12,6;100392;88;0,008;0,0;1,5;244;2,8;-0,62;-1,32;0;0;0;13,8;9,3;16,0;15,2;13,3;13,7;14,2;14,5;-170,8;21,7;1497
2021-10-02 03:00:00;12,7;100370;88;0,0081;0,0;1,3;241;2,0;-0,61;-1,11;0;0;0;13,8;9,3;16,0;15,2;13,3;13,7;14,2;14,5;-170,4;21,6;1535
2021-10-02 04:00:00;12,8;100347;88;0,0081;0,0;1,2;240;2,1;-0,6;-1,04;0;0;0;13,8;9,3;16,0;15,2;13,3;13,6;14,2;14,5;-170,3;21,6;1552
2021-10-02 05:00:00;12,6;100362;88;0,0081;0,0;1,3;240;2,2;-0,62;-1,11;1;0;0;13,8;9,3;16,0;15,2;13,3;13,6;14,1;14,5;-170,1;21,6;1440
2021-10-02 06:00:00;12,6;100365;89;0,0081;0,0;1,3;241;2,4;-0,64;-1,15;13;0;0;13,9;9,3;16,0;15,2;13,3;13,6;14,1;14,5;-170,1;21,7;1459
2021-10-02 07:00:00;12,8;100355;89;0,0082;0,04;1,2;246;2,3;-0,5;-1,14;49;0;0;13,9;9,3;16,0;15,2;13,3;13,6;14,1;14,5;-169,9;21,7;1489
2021-10-02 08:00:00;13,3;100312;88;0,0084;0,0;1,7;244;3,3;-0,75;-1,53;144;0;0;13,9;9,3;16,0;15,2;13,5;13,6;14,1;14,5;-169,8;21,7;1543
2021-10-02 09:00:00;14,0;100270;83;0,0083;0,0;2,0;242;3,6;-0,92;-1,76;254;0;0;13,9;9,3;16,0;15,2;13,7;13,7;14,1;14,5;-169,7;21,9;1549
2021-10-02 10:00:00;14,7;100220;79;0,0083;0,0;2,0;238;3,7;-1,05;-1,65;252;0;0;13,9;9,3;16,0;15,2;14,1;13,8;14,1;14,5;-169,8;21,7;1552
2021-10-02 11:00:00;15,4;100157;76;0,0083;0,0;1,8;234;3,9;-1,04;-1,49;255;0;0;14,0;9,3;16,0;15,2;14,5;14,0;14,1;14,5;-169,5;21,8;1503
2021-10-02 12:00:00;15,6;100080;74;0,0082;0,0;1,6;226;3,1;-1,04;-1,15;191;0;0;14,0;9,3;16,0;15,2;14,9;14,2;14,2;14,5;-169,4;21,8;1583
2021-10-02 13:00:00;15,9;99947;75;0,0084;0,0;1,1;207;2,8;-0,93;-0,5;176;0;0;14,0;9,3;16,0;15,2;15,2;14,4;14,2;14,5;-169,3;21,9;1469
2021-10-02 14:00:00;16,0;99850;74;0,0085;0,0;1,1;205;2,5;-0,98;-0,46;129;0;0;14,0;9,3;16,0;15,2;15,4;14,6;14,3;14,5;-169,3;21,8;1587
2021-10-02 15:00:00;15,7;99750;76;0,0084;0,0;1,0;189;2,7;-0,95;-0,15;53;0;0;14,0;9,3;16,0;15,2;15,4;14,8;14,4;14,5;-169,1;21,9;1598
2021-10-02 16:00:00;15,5;99620;72;0,008;0,0;1,2;217;2,6;-0,97;-0,73;12;0;0;14,0;9,3;16,0;15,2;15,3;14,9;14,4;14,5;-168,9;22,1;1584
2021-10-02 17:00:00;15,4;99530;69;0,0076;0,0;1,2;214;2,5;-1,0;-0,7;0;0;0;13,9;9,3;16,0;15,2;15,1;14,9;14,5;14,5;-168,6;22,1;1663
2021-10-02 18:00:00;15,4;99435;72;0,0078;0,0;1,2;210;2,5;-1,0;-0,58;0;0;0;13,9;9,3;16,0;15,2;14,8;14,8;14,6;14,5;-168,2;21,9;1677
2021-10-02 19:00:00;15,4;99303;73;0,0081;0,0;1,3;209;2,8;-1,13;-0,62;0;0;0;13,9;9,3;16,0;15,2;14,7;14,7;14,6;14,5;-167,8;21,9;1677
2021-10-02 20:00:00;15,1;99197;78;0,0084;0,67;1,5;212;3,2;-1,29;-0,82;0;0;0;13,9;9,3;16,0;15,2;14,6;14,7;14,6;14,5;-167,4;21,9;1628
2021-10-02 21:00:00;15,2;99048;80;0,0087;0,19;1,8;213;3,9;-1,48;-0,97;0;0;0;14,0;9,3;16,0;15,2;14,5;14,6;14,6;14,5;-167,4;22,1;1684
2021-10-02 22:00:00;16,5;98955;75;0,0089;0,0;2,8;218;5,7;-2,2;-1,75;0;0;0;14,1;9,3;16,0;15,2;14,4;14,5;14,6;14,5;-167,0;22,2;1573
2021-10-02 23:00:00;17,4;98908;72;0,009;0,0;3,8;225;7,4;-2,61;-2,7;0;0;0;14,1;9,3;16,0;15,2;14,4;14,5;14,6;14,5;-166,7;22,3;1633
2021-10-03 00:00:00;16,4;98922;80;0,0095;0,51;3,7;226;7,7;-2,54;-2,74;0;0;0;14,2;9,3;16,0;15,2;14,5;14,5;14,6;14,6;-166,6;22,4;1603
2021-10-03 01:00:00;16,2;98912;84;0,0098;0,0;3,4;224;6,6;-2,4;-2,41;0;0;0;14,2;9,3;16,0;15,2;14,6;14,5;14,6;14,6;-166,6;22,6;1634
2021-10-03 02:00:00;16,1;98885;86;0,0099;0,25;2,7;223;5,7;-1,96;-1,89;0;0;0;14,3;9,3;16,0;15,2;14,6;14,5;14,6;14,6;-166,4;22,5;1640
2021-10-03 03:00:00;16,3;98845;84;0,0098;0,12;2,2;220;3,9;-1,66;-1,4;0;0;0;14,3;9,3;16,0;15,2;14,7;14,6;14,6;14,6;-166,0;22,6;1609
2021-10-03 04:00:00;16,8;98823;79;0,0096;0,0;2,9;218;4,7;-2,24;-1,79;0;0;0;14,4;9,3;16,0;15,2;14,7;14,6;14,6;14,6;-166,1;22,8;1696
2021-10-03 05:00:00;16,8;98828;77;0,0093;0,0;3,3;217;5,7;-2,57;-1,98;0;0;0;14,5;9,3;16,0;15,2;14,7;14,6;14,6;14,6;-166,0;22,9;1708
2021-10-03 06:00:00;17,0;98807;76;0,0093;0,0;3,1;216;5,9;-2,5;-1,87;13;0;0;14,5;9,3;16,0;15,2;14,7;14,6;14,6;14,6;-165,8;23,2;1594
2021-10-03 07:00:00;16,7;98842;79;0,0095;0,31;2,9;218;5,1;-2,24;-1,79;34;0;0;14,6;9,3;16,0;15,2;14,8;14,6;14,6;14,6;-165,7;23,4;1658
2021-10-03 08:00:00;16,8;98857;81;0,0098;0,37;3,5;219;6,9;-2,7;-2,22;71;0;0;14,7;9,3;16,1;15,2;14,8;14,7;14,6;14,6;-165,7;23,4;1611
2021-10-03 09:00:00;16,7;98882;84;0,0101;0,75;3,3;219;6,9;-2,58;-2,11;79;0;0;14,8;9,3;16,1;15,2;15,0;14,7;14,7;14,6;-165,7;23,4;1644
2021-10-03 10:00:00;17,0;98880;84;0,0102;0,09;3,2;218;6,2;-2,47;-1,98;93;0;0;15,2;9,3;16,1;15,2;15,1;14,8;14,7;14,6;-165,5;23,5;1606
2021-10-03 11:00:00;17,5;98878;82;0,0103;0,1;3,4;219;6,8;-2,64;-2,18;111;0;0;15,4;9,3;16,1;15,2;15,3;14,9;14,7;14,6;-165,4;23,3;1588
2021-10-03 12:00:00;17,8;98948;82;0,0105;0,07;3,3;226;6,2;-2,27;-2,36;118;0;0;15,6;9,3;16,1;15,2;15,5;15,0;14,7;14,6;-165,2;23,4;1603
2021-10-03 13:00:00;17,9;98995;82;0,0106;0,04;2,4;223;4,6;-1,78;-1,67;125;0;0;15,7;9,3;16,1;15,2;15,7;15,1;14,8;14,6;-165,1;23,4;1581
2021-10-03 14:00:00;18,1;99058;82;0,0107;1,55;2,4;226;4,6;-1,64;-1,76;86;0;0;15,9;9,3;16,1;15,2;16,0;15,2;14,8;14,6;-165,0;23,3;1570
2021-10-03 15:00:00;15,2;99297;88;0,0096;1,24;2,4;322;6,1;1,78;-0,85;26;0;0;16,9;10,1;16,2;15,3;16,0;15,4;14,9;14,6;-164,4;23,5;1537
2021-10-03 16:00:00;11,9;99553;88;0,0077;0,25;2,1;338;4,6;2,03;-0,47;10;0;0;18,3;10,9;16,4;15,3;15,9;15,4;14,9;14,6;-163,8;23,6;1528
2021-10-03 17:00:00;11,5;99768;88;0,0075;0,0;0,8;260;1,5;-0,12;-0,77;2;0;0;18,7;10,9;17,1;15,3;15,5;15,4;15,0;14,6;-163,5;23,9;1501
2021-10-03 18:00:00;11,3;99958;88;0,0073;0,0;1,4;253;2,6;-0,4;-1,34;0;0;0;18,8;10,7;17,7;15,3;15,2;15,3;15,0;14,6;-162,4;24,2;1495
2021-10-03 19:00:00;11,1;100093;86;0,0071;0,0;1,8;250;3,5;-0,62;-1,71;0;0;0;18,9;10,4;18,1;15,3;14,8;15,1;15,0;14,6;-162,0;24,2;1606
2021-10-03 20:00:00;11,0;100185;85;0,007;0,0;1,8;238;3,6;-0,9;-1,52;0;0;0;19,0;10,1;18,3;15,3;14,5;14,9;15,0;14,6;-161,1;24,2;1516
2021-10-03 21:00:00;10,9;100298;85;0,0069;0,0;2,2;237;3,9;-1,16;-1,82;0;0;0;19,1;9,9;18,4;15,3;14,2;14,8;15,0;14,7;-159,8;24,3;1515
2021-10-03 22:00:00;10,9;100330;85;0,0069;0,0;1,8;239;3,2;-0,92;-1,53;0;0;0;19,2;9,9;18,5;15,3;13,9;14,6;14,9;14,7;-159,2;24,4;1510
2021-10-03 23:00:00;11,1;100355;84;0,0069;0,0;2,0;238;3,6;-1,09;-1,73;0;0;0;19,2;9,9;18,6;15,3;13,6;14,4;14,9;14,7;-158,8;24,2;1468
2021-10-04 00:00:00;10,9;100418;84;0,0068;0,0;1,8;234;3,2;-1,08;-1,48;0;0;0;19,2;9,8;18,6;15,3;13,4;14,2;14,8;14,7;-158,6;24,2;1456
2021-10-04 01:00:00;10,9;100475;83;0,0067;0,0;1,9;233;3,3;-1,12;-1,53;0;0;0;19,3;9,8;18,7;15,3;13,2;14,1;14,8;14,7;-158,3;24,2;1519
2021-10-04 02:00:00;10,9;100482;83;0,0067;0,0;1,8;233;2,9;-1,06;-1,41;0;0;0;19,3;9,8;18,7;15,3;13,1;13,9;14,7;14,7;-158,0;24,2;1403
2021-10-04 03:00:00;10,6;100510;84;0,0066;0,0;1,8;233;2,9;-1,05;-1,45;0;0;0;19,4;9,8;18,7;15,3;13,0;13,8;14,6;14,7;-157,7;24,1;1384
2021-10-04 04:00:00;10,6;100572;84;0,0067;0,0;1,8;235;3,2;-1,0;-1,44;0;0;0;19,4;9,8;18,7;15,3;12,8;13,7;14,6;14,7;-157,8;24,2;1395
2021-10-04 05:00:00;10,8;100598;84;0,0067;0,0;1,7;237;3,0;-0,94;-1,46;0;0;0;19,4;9,8;18,7;15,3;12,7;13,6;14,5;14,7;-157,7;23,8;1432
2021-10-04 06:00:00;11,0;100658;83;0,0068;0,0;1,7;233;3,0;-1,01;-1,35;21;0;0;19,5;9,8;18,7;15,3;12,6;13,4;14,4;14,7;-157,7;23,7;1402
2021-10-04 07:00:00;11,5;100725;82;0,0069;0,0;1,9;232;3,2;-1,16;-1,5;62;0;0;19,5;9,8;18,7;15,3;12,6;13,4;14,4;14,7;-157,8;23,7;1453
2021-10-04 08:00:00;12,1;100735;81;0,0071;0,0;2,0;233;3,4;-1,17;-1,58;106;0;0;19,5;9,8;18,7;15,3;12,7;13,3;14,3;14,7;-157,6;24,2;1376
2021-10-04 09:00:00;13,0;100725;80;0,0074;0,0;2,2;240;4,1;-1,04;-1,9;224;0;0;19,5;9,7;18,7;15,3;12,9;13,3;14,3;14,7;-157,7;24,2;1413
2021-10-04 10:00:00;15,1;100717;74;0,0078;0,0;2,6;240;5,4;-1,26;-2,26;437;0;0;19,5;9,7;18,7;15,3;13,2;13,4;14,2;14,7;-158,0;24,3;1493
2021-10-04 11:00:00;15,7;100760;64;0,007;0,0;2,7;236;5,5;-1,46;-2,25;248;0;0;19,5;9,7;18,7;15,3;13,6;13,5;14,2;14,7;-158,1;24,2;1430
2021-10-04 12:00:00;16,4;100740;54;0,0062;0,0;3,6;242;7,4;-1,71;-3,19;92;0;0;19,5;9,7;18,7;15,3;13,9;13,7;14,2;14,6;-158,1;24,1;1423
2021-10-04 13:00:00;16,8;100722;51;0,006;0,0;3,3;238;6,5;-1,74;-2,79;70;0;0;19,4;9,7;18,7;15,3;13,9;13,8;14,2;14,6;-158,3;24,0;1448
2021-10-04 14:00:00;16,8;100732;51;0,0061;0,0;3,2;241;6,7;-1,54;-2,84;61;0;0;19,4;9,7;18,7;15,3;13,8;13,9;14,2;14,6;-158,2;24,2;1458
2021-10-04 15:00:00;16,4;100720;52;0,006;0,0;2,6;242;4,8;-1,21;-2,25;29;0;0;19,4;9,7;18,6;15,3;13,7;13,9;14,3;14,6;-158,4;23,8;1393
2021-10-04 16:00:00;14,7;100727;59;0,0061;0,0;1,1;237;2,0;-0,6;-0,93;12;0;0;19,3;9,7;18,6;15,3;13,6;13,9;14,3;14,6;-158,4;23,7;1573
2021-10-04 17:00:00;13,1;100732;65;0,006;0,0;0,7;240;0,9;-0,33;-0,56;0;0;0;19,3;9,7;18,6;15,3;13,4;13,8;14,3;14,6;-158,4;23,6;1429
2021-10-04 18:00:00;12,0;100720;70;0,006;0,0;0,6;234;0,8;-0,34;-0,49;0;0;0;19,3;9,7;18,6;15,3;13,1;13,7;14,3;14,6;-158,4;23,3;1429
2021-10-04 19:00:00;11,3;100710;72;0,006;0,0;0,7;233;1,0;-0,4;-0,54;0;0;0;19,3;9,7;18,6;15,3;12,8;13,6;14,2;14,6;-158,3;23,0;1372
2021-10-04 20:00:00;11,2;100690;74;0,006;0,0;0,8;234;1,2;-0,46;-0,66;0;0;0;19,2;9,7;18,6;15,3;12,6;13,4;14,2;14,6;-158,4;23,0;1459
2021-10-04 21:00:00;10,8;100675;74;0,0059;0,0;0,7;236;1,1;-0,4;-0,58;0;0;0;19,3;9,7;18,6;15,3;12,4;13,3;14,2;14,6;-158,2;22,7;1462
2021-10-04 22:00:00;10,1;100652;76;0,0058;0,0;0,6;226;0,8;-0,4;-0,42;0;0;0;19,2;9,7;18,6;15,3;12,2;13,1;14,1;14,6;-158,4;22,8;1523
2021-10-04 23:00:00;9,6;100600;78;0,0058;0,0;0,4;218;0,9;-0,32;-0,26;0;0;0;19,2;9,7;18,5;15,3;12,0;13,0;14,1;14,5;-158,2;23,0;1455
2021-10-05 00:00:00;9,2;100542;81;0,0058;0,0;0,8;172;2,4;-0,75;0,16;0;0;0;19,2;9,7;18,5;15,3;11,8;12,8;14,0;14,5;-158,3;22,8;1511
2021-10-05 01:00:00;9,0;100477;82;0,0059;0,0;1,0;156;2,8;-0,84;0,42;0;0;0;19,2;9,7;18,5;15,3;11,6;12,7;13,9;14,5;-158,5;22,8;1464
2021-10-05 02:00:00;8,8;100397;84;0,0059;0,0;1,3;147;2,9;-1,1;0,7;0;0;0;19,2;9,7;18,5;15,3;11,5;12,6;13,9;14,5;-158,4;22,7;1584
2021-10-05 03:00:00;8,8;100323;85;0,006;0,0;0,6;177;1,9;-0,58;0,03;0;0;0;19,2;9,7;18,5;15,3;11,4;12,4;13,8;14,5;-158,4;22,7;1482
2021-10-05 04:00:00;8,8;100265;86;0,0061;0,0;1,1;146;2,7;-0,91;0,6;0;0;0;19,2;9,7;18,5;15,3;11,3;12,3;13,7;14,5;-158,6;22,7;1492
2021-10-05 05:00:00;8,8;100200;86;0,006;0,0;1,2;146;3,3;-1,04;0,68;0;0;0;19,6;9,7;18,5;15,3;11,2;12,2;13,7;14,5;-158,5;23,1;1601
2021-10-05 06:00:00;8,9;100145;87;0,0062;0,0;1,3;148;3,3;-1,12;0,68;18;0;0;19,2;9,7;18,5;15,3;11,1;12,1;13,6;14,5;-158,4;23,2;1615
2021-10-05 07:00:00;9,6;100072;88;0,0066;0,0;1,2;147;3,0;-1,04;0,67;111;0;0;20,3;9,7;18,4;15,3;11,1;12,1;13,5;14,5;-158,7;23,1;1533
2021-10-05 08:00:00;12,4;99980;84;0,0076;0,0;1,2;166;3,2;-1,08;0,31;303;0;0;19,2;9,7;18,4;15,3;11,4;12,1;13,4;14,4;-158,8;22,9;1581
2021-10-05 09:00:00;14,2;99912;74;0,0074;0,0;1,3;190;3,3;-1,22;-0,2;321;0;0;19,9;9,7;18,4;15,3;11,9;12,1;13,4;14,4;-158,7;23,0;1493
2021-10-05 10:00:00;15,2;99832;68;0,0074;0,0;1,5;209;3,0;-1,27;-0,72;447;0;0;19,1;9,7;18,4;15,3;12,5;12,4;13,4;14,4;-159,0;23,0;1503
2021-10-05 11:00:00;16,5;99740;64;0,0075;0,0;1,8;211;3,8;-1,49;-0,92;365;0;0;19,1;9,7;18,4;15,3;13,0;12,6;13,4;14,4;-158,9;23,0;1668
2021-10-05 12:00:00;17,2;99672;58;0,0071;0,0;1,8;205;4,2;-1,6;-0,78;104;0;0;19,0;9,7;18,4;15,3;13,3;12,9;13,4;14,4;-159,0;22,9;1552
2021-10-05 13:00:00;17,0;99620;58;0,007;0,0;1,6;216;3,0;-1,3;-0,95;129;0;0;19,0;9,7;18,3;15,3;13,5;13,1;13,4;14,3;-159,0;22,8;1586
2021-10-05 14:00:00;16,9;99550;59;0,0071;0,0;1,6;217;3,0;-1,24;-0,93;92;0;0;19,0;9,7;18,3;15,3;13,7;13,3;13,5;14,3;-159,0;22,6;1618
2021-10-05 15:00:00;15,4;99523;68;0,0074;1,0;1,9;226;3,4;-1,3;-1,4;23;0;0;19,0;9,7;18,3;15,3;13,8;13,5;13,6;14,3;-158,8;22,8;1513
2021-10-05 16:00:00;13,5;99530;82;0,008;0,4;1,5;222;2,7;-1,08;-0,99;6;0;0;19,0;9,7;18,3;15,3;13,8;13,6;13,7;14,3;-158,8;22,7;1531
2021-10-05 17:00:00;13,0;99558;86;0,0081;0,46;2,1;233;3,8;-1,27;-1,7;0;0;0;20,0;9,7;18,3;15,3;13,7;13,6;13,7;14,3;-158,8;22,7;1510
2021-10-05 18:00:00;12,4;99633;87;0,0078;0,02;1,7;242;2,8;-0,77;-1,49;0;0;0;21,0;9,7;18,3;15,3;13,6;13,6;13,8;14,3;-158,6;22,8;1558
2021-10-05 19:00:00;11,9;99680;86;0,0075;0,0;1,8;237;3,0;-0,99;-1,55;0;0;0;21,2;9,7;18,3;15,3;13,4;13,6;13,8;14,3;-158,7;22,9;1599
2021-10-05 20:00:00;11,7;99720;86;0,0074;0,02;2,0;236;3,8;-1,15;-1,69;0;0;0;21,3;9,7;18,3;15,3;13,2;13,5;13,8;14,2;-158,4;22,8;1491
2021-10-05 21:00:00;11,2;99788;86;0,0071;0,02;2,0;236;3,8;-1,08;-1,66;0;0;0;21,3;9,7;18,3;15,3;13,0;13,5;13,8;14,2;-158,2;23,0;1588
2021-10-05 22:00:00;11,2;99843;84;0,007;0,0;2,4;243;4,4;-1,07;-2,12;0;0;0;21,4;9,7;18,3;15,3;12,9;13,4;13,8;14,2;-158,3;22,9;1617
2021-10-05 23:00:00;11,0;99910;83;0,0068;0,0;2,3;245;4,6;-0,95;-2,05;0;0;0;21,4;9,7;18,3;15,3;12,7;13,2;13,8;14,2;-158,2;23,1;1581
2021-10-06 00:00:00;10,8;99955;83;0,0067;0,0;2,3;236;4,1;-1,25;-1,91;0;0;0;21,4;9,7;18,3;15,3;12,5;13,1;13,8;14,2;-157,9;23,2;1602
2021-10-06 01:00:00;10,8;99985;83;0,0067;0,0;2,6;236;4,9;-1,42;-2,14;0;0;0;21,5;9,7;18,3;15,3;12,4;13,0;13,8;14,2;-158,0;23,2;1638
2021-10-06 02:00:00;11,0;99995;81;0,0067;0,0;2,8;236;5,5;-1,54;-2,36;0;0;0;21,5;9,7;18,3;15,3;12,3;12,9;13,7;14,2;-157,9;23,4;1525
2021-10-06 03:00:00;11,1;100017;80;0,0066;0,0;2,9;238;5,8;-1,53;-2,5;0;0;0;21,5;9,7;18,3;15,3;12,2;12,9;13,7;14,2;-157,9;23,5;1570
2021-10-06 04:00:00;11,1;100052;80;0,0066;0,0;3,1;240;6,5;-1,51;-2,67;0;0;0;21,5;9,7;18,3;15,3;12,2;12,8;13,7;14,2;-157,9;23,4;1508
2021-10-06 05:00:00;10,7;100083;82;0,0065;0,24;3,2;237;5,6;-1,71;-2,7;2;0;0;21,5;9,7;18,4;15,3;12,1;12,8;13,6;14,2;-157,7;23,4;1560
2021-10-06 06:00:00;10,5;100095;84;0,0066;0,09;3,1;234;5,3;-1,79;-2,47;26;0;0;21,5;9,7;18,4;15,3;12,1;12,7;13,6;14,2;-157,6;23,4;1546
2021-10-06 07:00:00;10,8;100120;82;0,0066;0,0;3,6;234;6,3;-2,12;-2,94;37;0;0;21,6;9,7;18,4;15,3;12,0;12,6;13,6;14,2;-157,8;23,6;1568
2021-10-06 08:00:00;10,5;100170;84;0,0066;0,02;3,5;234;6,7;-2,02;-2,87;61;0;0;21,6;9,7;18,4;15,3;12,0;12,6;13,5;14,2;-157,6;23,7;1501
2021-10-06 09:00:00;10,5;100235;86;0,0068;0,0;3,2;234;5,8;-1,88;-2,62;80;0;0;21,6;9,8;18,4;15,3;12,1;12,6;13,5;14,2;-157,6;23,6;1495
2021-10-06 10:00:00;10,6;100298;88;0,007;1,75;2,6;234;4,7;-1,5;-2,13;89;0;0;21,7;9,8;18,4;15,3;12,2;12,6;13,5;14,2;-157,6;23,6;1398
2021-10-06 11:00:00;10,4;100353;90;0,0071;0,81;2,3;230;4,0;-1,48;-1,81;73;0;0;22,6;9,8;18,4;15,3;12,3;12,7;13,5;14,2;-157,6;23,9;1517
2021-10-06 12:00:00;11,3;100390;89;0,0074;0,0;2,4;237;4,4;-1,31;-2,06;73;0;0;23,3;9,8;18,4;15,3;12,4;12,7;13,5;14,2;-157,5;24,1;1470
2021-10-06 13:00:00;12,2;100460;88;0,0077;0,0;2,4;241;4,8;-1,15;-2,08;117;0;0;23,5;9,8;18,5;15,3;12,5;12,7;13,4;14,2;-157,0;24,4;1414
2021-10-06 14:00:00;12,9;100527;84;0,0078;0,27;2,4;238;5,1;-1,27;-2,09;105;0;0;22,3;9,8;18,7;15,3;12,7;12,8;13,4;14,2;-156,0;24,8;1433
2021-10-06 15:00:00;12,1;100562;88;0,0077;5,09;1,4;221;2,7;-0,97;-0,99;18;0;0;24,3;11,1;19,9;15,8;12,8;12,9;13,4;14,2;-155,2;24,8;1432
2021-10-06 16:00:00;12,0;100675;90;0,0078;2,11;0,7;166;2,2;0,4;0,11;10;2;6;25,3;12,2;21,8;17,1;12,8;12,9;13,4;14,1;-51,9;25,0;1424
2021-10-06 17:00:00;11,1;100815;90;0,0074;0,0;0,6;113;1,9;0,33;0,12;0;0;0;24,7;12,3;21,9;17,0;12,8;13,0;13,4;14,1;-15,5;25,0;1386
2021-10-06 18:00:00;10,1;100928;90;0,0068;0,02;0,4;268;0,6;0,03;-0,37;0;0;0;24,3;12,2;21,6;16,7;12,7;13,0;13,4;14,1;-15,6;25,1;1335
2021-10-06 19:00:00;9,4;101037;89;0,0065;0,0;0,4;256;0,6;-0,1;-0,41;0;0;0;24,0;12,1;21,4;16,6;12,5;12,9;13,4;14,1;-15,9;25,3;1436
2021-10-06 20:00:00;10,1;101125;89;0,0068;0,02;0,7;308;1,3;0,45;-0,42;0;0;0;23,9;11,9;21,2;16,4;12,2;12,8;13,4;14,1;-16,5;25,3;1377
2021-10-06 21:00:00;9,8;101232;91;0,0068;0,02;1,1;335;2,0;0,98;-0,44;0;0;0;23,7;11,9;21,1;16,3;12,0;12,7;13,4;14,1;-17,2;25,2;1388
2021-10-06 22:00:00;9,1;101310;92;0,0065;0,02;0,8;321;1,6;0,7;-0,41;0;0;0;23,6;11,8;21,0;16,3;11,8;12,6;13,4;14,1;-17,8;25,4;1330
2021-10-06 23:00:00;8,4;101385;91;0,0062;0,02;0,5;334;1,1;0,49;-0,22;0;0;0;23,5;11,7;20,9;16,2;11,6;12,4;13,4;14,1;-18,5;25,4;1357
2021-10-07 00:00:00;8,1;101465;92;0,0061;0,02;0,3;219;0,7;0,05;-0,18;0;0;0;23,4;11,7;20,8;16,2;11,4;12,3;13,3;14,1;-19,3;25,7;1289
2021-10-07 01:00:00;8,7;101515;93;0,0064;0,0;0,4;248;0,7;-0,12;-0,32;0;0;0;23,4;11,6;20,8;16,1;11,3;12,2;13,3;14,1;-20,2;25,8;1303
2021-10-07 02:00:00;8,9;101560;93;0,0065;0,0;0,6;297;1,1;0,24;-0,43;0;0;0;23,3;11,6;20,7;16,1;11,3;12,1;13,2;14,0;-21,0;25,6;1343
2021-10-07 03:00:00;9,0;101610;93;0,0066;0,02;0,8;337;1,5;0,7;-0,29;0;0;0;23,3;11,6;20,7;16,1;11,4;12,0;13,2;14,0;-21,5;25,7;1332
2021-10-07 04:00:00;8,9;101680;94;0,0066;0,02;0,6;242;1,3;0,52;-0,27;0;0;0;23,2;11,6;20,6;16,1;11,4;12,0;13,1;14,0;-21,6;25,6;1311
2021-10-07 05:00:00;8,3;101747;95;0,0064;0,02;0,7;75;1,3;0,12;0,63;0;0;0;23,2;11,6;20,6;16,0;11,4;12,0;13,1;14,0;-21,5;25,6;1338
2021-10-07 06:00:00;8,3;101800;94;0,0063;0,02;0,7;123;1,5;-0,28;0,53;16;0;0;23,1;11,6;20,6;16,0;11,4;12,0;13,1;14,0;-21,5;25,5;1304
2021-10-07 07:00:00;8,4;101865;96;0,0065;0,0;0,7;99;1,4;-0,14;0,64;54;0;0;23,0;11,6;20,6;16,0;11,5;12,0;13,0;14,0;-21,8;25,3;1351
2021-10-07 08:00:00;8,6;101918;98;0,0067;0,02;0,8;113;1,7;-0,3;0,68;91;0;0;23,0;11,6;20,6;16,0;11,6;12,0;13,0;14,0;-22,4;25,4;1348
2021-10-07 09:00:00;9,3;101955;97;0,007;0,0;0,8;156;2,0;-0,62;0,39;106;0;0;23,0;11,6;20,5;16,0;11,7;12,0;13,0;14,0;-23,2;nan;1319
2021-10-07 10:00:00;9,8;101992;98;0,0072;0,0;0,8;176;2,3;-0,75;0,12;108;0;0;23,0;11,6;20,5;16,0;12,0;12,1;13,0;14,0;-24,0;nan;1325
2021-10-07 11:00:00;10,1;102017;100;0,0076;0,0;0,6;266;1,6;-0,04;-0,56;173;0;0;22,9;11,6;20,5;16,0;12,2;12,2;13,0;13,9;-25,0;nan;1285
2021-10-07 12:00:00;11,4;102038;95;0,0078;0,0;0,5;257;1,0;-0,11;-0,48;112;0;0;22,9;11,7;20,5;16,0;12,4;12,4;13,0;13,9;-26,0;nan;1259
2021-10-07 13:00:00;11,6;102060;88;0,0074;0,0;0,6;218;1,9;-0,47;-0,38;124;0;0;22,8;11,7;20,5;16,0;12,7;12,5;13,0;13,9;-27,0;nan;1220
2021-10-07 14:00:00;11,7;102082;84;0,0071;0,0;0,5;250;1,5;-0,15;-0,37;86;0;0;22,8;11,7;20,4;16,0;12,8;12,7;13,0;13,9;-28,0;25,5;1269
2021-10-07 15:00:00;12,0;102070;80;0,0069;0,0;0,6;194;1,5;-0,27;-0,14;36;0;0;22,8;11,7;20,4;16,0;12,9;12,8;13,1;13,9;-29,1;25,7;1241
2021-10-07 16:00:00;11,3;102078;83;0,0068;0,0;0,4;234;0,8;0,17;0,05;13;0;0;22,8;11,7;20,4;16,0;12,8;12,8;13,1;13,9;-30,3;25,2;1256
2021-10-07 17:00:00;9,8;102124;87;0,0064;0,0;0,3;276;0,6;0,28;-0,13;0;0;0;22,7;11,7;20,4;16,0;12,5;12,8;13,1;13,9;-31,4;25,3;1273
2021-10-07 18:00:00;9,0;102185;88;0,0062;0,0;0,4;248;0,7;0,36;-0,13;0;0;0;22,7;11,7;20,3;16,0;12,2;12,7;13,2;13,9;-32,6;25,2;1310
2021-10-07 19:00:00;8,4;102200;89;0,006;0,0;0,6;335;0,8;0,5;-0,23;0;0;0;22,6;11,7;20,3;15,9;11,9;12,6;13,2;13,8;-33,8;25,2;1251
2021-10-07 20:00:00;8,5;102218;88;0,006;0,0;0,6;257;0,9;0,53;-0,12;0;0;0;22,6;11,7;20,3;15,9;11,6;12,4;13,2;13,8;-34,8;25,3;1304
2021-10-07 21:00:00;8,4;102235;89;0,006;0,0;0,6;252;1,1;0,54;-0,13;0;0;0;22,6;11,7;20,2;15,9;11,3;12,2;13,1;13,8;-35,8;25,3;1310
2021-10-07 22:00:00;8,3;102248;90;0,006;0,0;0,5;238;0,9;0,41;-0,21;0;0;0;22,6;11,7;20,2;15,9;11,1;12,1;13,1;13,8;-37,0;25,4;1264
2021-10-07 23:00:00;7,1;102258;91;0,0056;0,0;0,2;306;0,5;0,12;-0,2;0;0;0;22,6;11,7;20,2;15,9;10,9;11,9;13,0;13,8;-37,8;25,5;1301
2021-10-08 00:00:00;6,3;102258;92;0,0053;0,0;0,4;165;0,6;0,31;-0,09;0;0;0;22,6;11,7;20,2;15,9;10,7;11,8;13,0;13,8;-38,8;25,6;1284
2021-10-08 01:00:00;5,7;102282;90;0,0051;0,0;0,3;239;0,6;0,22;-0,12;0;0;0;22,6;11,7;20,2;15,9;10,5;11,6;12,9;13,8;-39,7;25,8;1233
2021-10-08 02:00:00;6,0;102275;92;0,0052;0,0;0,4;225;0,8;0,18;-0,2;0;0;0;22,6;11,7;20,1;15,9;10,2;11,4;12,8;13,8;-40,2;26,0;1255
2021-10-08 03:00:00;6,6;102273;88;0,0052;0,02;0,3;160;0,8;-0,08;-0,0;0;0;0;22,6;11,7;20,1;15,9;10,1;11,3;12,8;13,8;-40,5;25,8;1411
2021-10-08 04:00:00;6,9;102288;90;0,0054;0,02;0,7;186;1,4;-0,4;0,21;0;0;0;22,5;11,7;20,1;15,9;9,9;11,2;12,7;13,8;-40,8;25,6;1274
2021-10-08 05:00:00;6,2;102298;94;0,0054;0,02;0,4;220;0,8;-0,2;-0,13;1;0;0;22,5;11,7;20,1;15,9;9,8;11,0;12,6;13,8;-41,1;25,4;1252
2021-10-08 06:00:00;6,8;102327;95;0,0057;0,02;0,3;144;1,0;-0,08;0,18;72;0;0;22,5;11,7;20,0;15,9;9,7;10,9;12,5;13,8;-41,4;25,4;1242
2021-10-08 07:00:00;8,1;102328;100;0,0066;0,0;0,5;34;1,0;0,31;0,27;200;0;0;22,5;11,7;20,0;15,9;9,8;10,8;12,5;13,7;-41,7;25,6;1271